Location: Fort Worth, Tx
(32.7431°N, 97.3695°W)
Time: 00:40:02
(UTC-04:00)

Vanguard 2 - Pass Details

Date: 24 February 2024
Orbit: 552 x 2916 km, 32.9° (Epoch: 24 April)

Event Time Altitude Azimuth Distance (km) Brightness Sun altitude
Rises 00:23:13 0° 277° (W) 5,640 12.3 -60.5°
Reaches altitude 10° 00:26:28 10° 277° (W) 4,888 11.8 -61.0°
Enters shadow 00:31:58 31° 277° (W) 3,766 11.0 -61.7°
